DELTA 1 DEB, 18472

Orbit data source: Space-Track

DELTA 1 DEB, 18472 is space debris in SSO originally from a launch on Tue, 06 Nov 1973 UTC launched from the Air Force Western Test Range (AFWTR). Debris objects in space refer to the collection of defunct objects orbiting the Earth. Examples of debris include non-operational satellites, rocket bodies, and fragments generated from explosions, collisions, or faulty payload assembly.

Loading next visibility...
Identifier
18472, 1973-086GV
Orbit
SSO
Country
Flag of USUS
Related business
Manufacturer
Unknown
Mission
Spacecraft
Bus & Motor
Unknown
Mass
Unknown
Launch date (UTC)
1973-11-06 (52 years ago)
Launch vehicle
Unknown
Launch site
Air Force Western Test Range (AFWTR)
Object type
Payload
Rocket body
Debris
Shape & HBR
Unknown shape, 0.1 m
Radar Cross Section
Small (<0.1 m²)

Expand to show TLE details & history
Last TLE update: 2 days ago

TLE from 2 days ago
0 DELTA 1 DEB
1 18472U 73086GV  25290.59172509 -.00000029  00000-0  66650-4 0  9991
2 18472 101.0757 340.7739 0014952 178.0052 341.4456 12.77546472893396
Epoch: 2025-10-17T14:12Z
TLE epoch observation values (Epoch: 2025-10-17T14:12:05.047Z)
Latitude
20.20895°
Longitude
-74.47047°
Altitude
1,342.659 km
Speed
7.193 km/s
True Right ascension
10h 59m 32s
True Declination
20° 06' 22"
Sunlit
Object was in daylight at epoch
Visualization orbit readout
Latitude
Unknown
Longitude
Unknown
Altitude
Unknown
Speed
Unknown
Apparent Right ascension
Unknown
Apparent Declination
Unknown
Sunlit
N/A
Visualization observer readout
Local Sidereal Time
20:06:48
Azimuth
Unknown
Elevation
Unknown
Doppler factor
Unknown
Orbital elements
Apogee altitude
1,360.376 km
Perigee altitude
1,337.269 km
Semi-major axis
7,726.959 km
Eccentricity
0.0015
Inclination
101.0757°
RAAN
340.7739°
Arg. of periapsis
178.0052°
True anomaly
341.39098°
Mean anomaly
341.4456°
Eccentric anomaly
341.4183°
Mean motion
3.19544 °/min
Orbital period
112.66 mins
BSTAR
0.00006665
Loading maneuver chart data...
Computing Atmospheric mass density...
Loading historical data...
Loading historical data...
Loading historical data...
Loading historical data...
Loading historical data...
Loading historical data...
Loading historical data...

Documentation

Showing up to 5 results
|